Regional Weather Roundup
Issued by NWS

Home | Current Version | Previous Version | Graphics & Text | Print | Product List | Glossary On
Versions: 1 2 3 4 5 6 7 8 9 10 11 12 13 14 15 16 17 18 19 20 21 22 23 24 25 26 27
000
ASUS45 KSLC 240210
RWRUT

UTAH REGIONAL WEATHER ROUNDUP
NATIONAL WEATHER SERVICE SALT LAKE CITY UT
800 PM MDT SAT JUL 23 2016

UTZ001>011-023>025-240300-

NORTHERN UTAH

CITY           SKY/WX    TMP DP  RH WIND       PRES   REMARKS
BRIGHAM CITY     N/A     87  16   7 S5        30.03S
HILL AFB       CLEAR     86  23  10 NE2       30.06F
LOGAN          CLEAR     88  27  11 CALM      30.03F
OGDEN          CLEAR     87  19   8 CALM      30.03F
PROVO AIRPORT  CLEAR     84  50  30 NW12      30.01F
SALT LAKE CITY PTCLDY    90  24   9 N10       30.01F
VERNAL         CLEAR     90  30  11 SW7       30.02S
WENDOVER       CLEAR     88  27  11 NE6       30.01F
HEBER CITY     CLEAR     86  28  12 NW3       30.08F

$$

UTZ012>022-026-027-240300-

SOUTHERN/CENTRAL UTAH

CITY           SKY/WX    TMP DP  RH WIND       PRES   REMARKS
BLANDING       CLEAR     89  42  19 N6        30.17R
BRYCE CANYON   PTCLDY    82  32  16 SW13      30.25S
CEDAR CITY     CLEAR     90  29  11 SW10      30.06S
DELTA          CLEAR     91  23   8 N6        29.99S
MILFORD        PTCLDY    97  30   9 VRB5      29.97F HX  91
MOAB/CYNLANDS  CLOUDY    95  33  11 SW16      29.96R HX  90
PRICE          CLEAR     90  27  10 W10       30.09R
ST GEORGE      CLEAR    106  37   9 W15       29.83S HX 100

$$

REGIONAL REPORTS     COLORADO/ARIZONA

CITY           SKY/WX    TMP DP  RH WIND       PRES   REMARKS
CRAIG, CO      CLOUDY    80  39  23 SW13      30.13R
GRAND JUNCTION PTCLDY    91  43  18 E5        29.97F
RIFLE          CLEAR     86  38  18 NW12G23   30.08R
MONTROSE       CLEAR     86  48  26 SW5       30.10S
CORTEZ         CLOUDY    85  42  22 E7        30.10F
PAGE, AZ       PTCLDY   101  36  10 VRB7      29.91S HX  95
GRAND CANYON   PTCLDY    88  40  18 CALM      30.19S
KINGMAN        CLEAR     98  47  17 SW17      29.93S HX  94
FLAGSTAFF      TSTM      67  49  52 N8        30.31R

$$

REGIONAL REPORTS    NEVADA/IDAHO/WYOMING

CITY           SKY/WX    TMP DP  RH WIND       PRES   REMARKS
LAS VEGAS, NV  CLEAR    109  26   5 SW13      29.71S HX 101
ELY            CLEAR     89  15   6 S6        30.10F
ELKO           SUNNY     88   8   5 W13       30.08S
POCATELLO, ID  CLEAR     79  33  19 SW12      30.08F
BURLEY         CLEAR     76  38  25 W10       30.06F
EVANSTON, WY   CLEAR     76  16  10 W15       30.24F
ROCK SPRINGS   CLEAR     81  14   8 NW14      30.18R
KEMMERER         N/A     73  21  14 W12       30.25F

$$




USA.gov is the U.S. government's official web portal to all federal, state and local government web resources and services.